Location: Alsip
(41.6689°N, 87.7387°W)
Time: 21:21:25
(UTC+00:00)

Cosmos 1048 Rocket - Pass Details

Date: 25 October 2020
Orbit: 743 x 792 km, 74.0° (Epoch: 03 December)

Event Time Altitude Azimuth Distance (km) Brightness Sun altitude
Exits shadow 08:11:41 10° 47° (NE) 2,319 7.0 -45.0°
Drops below altitude 10° 08:11:50 10° 46° (NE) 2,360 7.1 -45.0°
Sets 08:14:36 0° 33° (NNE) 3,283 7.9 -44.6°
